Regional Weather Roundup
Issued by NWS

Home | Current Version | Previous Version | Graphics & Text | Print | Product List | Glossary On
Versions: 1 2 3 4 5 6 7 8 9 10 11 12 13 14 15 16 17 18 19 20 21 22 23 24 25 26 27 28 29 30 31 32 33 34 35 36 37 38 39 40 41 42 43 44 45 46 47 48 49 50
000
ASUS43 KMPX 031601
RWRMN
WEATHER ROUNDUP FOR MINNESOTA
NATIONAL WEATHER SERVICE TWIN CITIES/CHANHASSEN MN
1100 AM CDT SUN MAY 03 2015


NOTE: "FAIR" INDICATES FEW OR NO CLOUDS BELOW 12,000 FEET WITH NO
SIGNIFICANT WEATHER AND/OR OBSTRUCTIONS TO VISIBILITY. N/A MEANS
CURRENT SKY AND/OR WEATHER CONDITIONS ARE NOT AVAILABLE.

MNZ060>063-068>070-031700-
   Twin Cities Metro

CITY           SKY/WX    TMP DP  RH WIND       PRES   REMARKS
TWIN CITIES    PTSUNNY   71  55  56 VRB3      29.78R
ST PAUL        PTSUNNY   67  53  61 CALM      29.79R
CRYSTAL        PTSUNNY   69  54  58 S5        29.77R
BLAINE         PTSUNNY   66  54  63 S5        29.78R
LAKEVILLE      PTSUNNY   70  54  56 S9        29.76F
EDEN PRAIRIE   PTSUNNY   69  54  58 VRB5      29.77R
SOUTH ST PAUL  PTSUNNY   68  53  57 S3        29.78R
LAKE ELMO      FAIR      70  55  60 S9        29.79S
$$
MNZ001>005-007-008-013>017-022>024-027-028-031700-
   Northwest Minnesota

CITY           SKY/WX    TMP DP  RH WIND       PRES   REMARKS
BEMIDJI        PTSUNNY   61  40  45 NW17      29.84R
HALLOCK        MOSUNNY   61  32  33 NW17G28   29.85R
ROSEAU         PTSUNNY   57  43  58 W14G20    29.82R
WARROAD        PTSUNNY   57  43  58 W12       29.80S
THIEF RVR FALL CLOUDY    59  37  44 NW18      29.87R
CROOKSTON      CLOUDY    57  39  51 NW21G26   29.89R
MOORHEAD       PTSUNNY   61  39  44 N22       29.87R
PARK RAPIDS    PTSUNNY   70  36  28 N18G25    29.80R
MAHNOMEN       FAIR      58  39  50 N21       29.85S
$$
MNZ006-009>011-018-025>026-031700-
   North Central Minnesota

CITY           SKY/WX    TMP DP  RH WIND       PRES   REMARKS
BAUDETTE       PTSUNNY   58  39  49 NW13      29.80R
FLAG ISLAND    SUNNY     54  41  62 NW13      29.77S
INTL FALLS     PTSUNNY   64  38  38 NW15G23   29.76R
WASKISH        CLOUDY    57  48  72 SW12      29.81R
BIG FORK       MOSUNNY   68  37  32 NW8G16    29.79R
LONGVILLE      SUNNY     72  39  30 NW10      29.79R
GRAND RAPIDS   SUNNY     72  37  28 NW17G23   29.77R
CRANE LAKE     PTSUNNY   68  37  32 NW8       29.75R
COOK           MOSUNNY   72  36  26 W10G26    29.75R
WALKER         PTSUNNY   68  34  29 NW15G22   29.80R
$$
MNZ012-019>021-037-031700-
   Northeast Minnesota

CITY           SKY/WX    TMP DP  RH WIND       PRES   REMARKS
DULUTH         MOSUNNY   74  51  44 NW10      29.74S
ELY            MOSUNNY   70  39  32 W9        29.73S
HIBBING        SUNNY     74  37  26 NW14      29.74S
EVELETH        SUNNY     72  41  33 NW13      29.75S
DULUTH HARBOR  PTSUNNY   72  55  56 SW10      29.73S
TWO HARBORS    MOSUNNY   75  55  50 W8        29.71R
SILVER BAY     MOSUNNY   75  48  38 W3        29.70S
GRAND MARAIS     N/A     46  40  79 SW12      29.70R
G MARAIS ARPRT SUNNY     72  45  37 W9        29.73R
$$
MNZ029>031-032-039>041-046>048-054>057-064-031700-
   West Central Minnesota

CITY           SKY/WX    TMP DP  RH WIND       PRES   REMARKS
FERGUS FALLS   MOSUNNY   63  45  51 N21G36    29.84R
WHEATON        SUNNY     63  43  48 N22G28    29.86R
MORRIS         MOSUNNY   72  54  53 N20       29.79S
ALEXANDRIA     MOSUNNY   68  49  50 N20G25    29.82R
ELBOW LAKE     FAIR      68  42  38 N20G28    29.82R
WADENA         PTSUNNY   68  43  40 NW14G20   29.81R
GLENWOOD       MOSUNNY   66  57  72 NW9       29.81R
APPLETON       SUNNY     72  55  56 N21       29.78R
BENSON         SUNNY     70  54  56 N8        29.79R
ORTONVILLE     MOSUNNY   68  52  56 N21G26    29.80R
MADISON        SUNNY     70  54  56 N16G23    29.79R
WILLMAR        FAIR      70  55  60 N6        29.79R
$$
MNZ033>034-036-042>043-049>051-058-059-031700-
   Central Minnesota

CITY           SKY/WX    TMP DP  RH WIND       PRES   REMARKS
ST CLOUD       PTSUNNY   64  54  69 NW8       29.80R
SAUK CENTRE    FAIR      64  57  77 CALM      29.80S
PAYNESVILLE    CLOUDY    61  54  77 NW10      29.81S
AITKIN         SUNNY     73  50  43 CALM      29.76R
PINE RIVER     MOSUNNY   72  41  33 NW10G18   29.82R
BRAINERD       MOSUNNY   67  48  50 N9        29.79R
STAPLES        CLOUDY    61  46  59 N5        29.81R
LONG PRAIRIE   FAIR      68  54  60 CALM      29.81R
LITTLE FALLS   PTSUNNY   68  52  56 W3        29.79R
LITCHFIELD     MOSUNNY   70  57  64 CALM      29.79R
BUFFALO        PTSUNNY   65  53  64 S8        29.79R
MAPLE LAKE     PTSUNNY   66  58  73 S7        29.78S
$$
MNZ037-044-045-052-053-031700-
   East Central Minnesota

CITY           SKY/WX    TMP DP  RH WIND       PRES   REMARKS
PRINCETON      PTSUNNY   68  54  60 CALM      29.79R
MORA           MOSUNNY   64  52  63 W6        29.81R
CAMBRIDGE      MOSUNNY   70  54  56 S5        29.77R
RUSH CITY      MOSUNNY   68  53  59 SW3       29.79S
MOOSE LAKE     MOSUNNY   72  50  46 NW8       29.74S
HINCKLEY       FAIR      68  55  64 S6        29.79R
CLOQUET        MOSUNNY   73  48  40 W7        29.75R
MCGREGOR       MOSUNNY   70  52  52 W7        29.77R
$$
MNZ071>073-080-081-089-090-097-098-031700-
   Southwest Minnesota

CITY           SKY/WX    TMP DP  RH WIND       PRES   REMARKS
MONTEVIDEO     SUNNY     72  55  56 N14       29.78R
GRANITE FALLS  SUNNY     71  55  58 NW10      29.78R
CANBY          SUNNY     70  56  61 N13G22    29.79R
MARSHALL       SUNNY     72  52  49 NW8       29.77R
REDWOOD FALLS  SUNNY     74  54  49 SW13      29.75F
OLIVIA         SUNNY     70  52  52 W8        29.75S
WINDOM         SUNNY     73  52  46 S9        29.78R
WORTHINGTON    SUNNY     73  52  46 SW12      29.78S
JACKSON        MOSUNNY   73  48  40 SW13      29.79S
TRACY          SUNNY     77  53  44 SW7       29.77S
SLAYTON        SUNNY     74  51  44 SW13      29.79R
$$
MNZ065>067-074>077-082>085-091>093-031700-
   South Central Minnesota

CITY           SKY/WX    TMP DP  RH WIND       PRES   REMARKS
MANKATO        SUNNY     72  52  49 SW7       29.78S
NEW ULM        SUNNY     72  54  53 S7        29.76S
FAIRMONT       MOSUNNY   73  48  40 S10       29.79S
GLENCOE        MOSUNNY   72  57  60 S6        29.77S
FARIBAULT      MOSUNNY   72  54  53 SE5       29.79S
OWATONNA       MOSUNNY   73  52  46 S6        29.79F
WASECA         SUNNY     73  50  43 SW12G17   29.80S
ALBERT LEA     SUNNY     72  54  53 S8        29.80S
$$
MNZ078>079-086>088-094>096-031700-
   Southeast Minnesota

CITY           SKY/WX    TMP DP  RH WIND       PRES   REMARKS
ROCHESTER      PTSUNNY   72  54  53 SW12      29.82F
RED WING       PTSUNNY   70  52  52 SW3       29.79S
STANTON        PTSUNNY   70  53  54 E3        29.78F
DODGE CENTER   PTSUNNY   72  54  53 SW6       29.81S
WINONA         CLOUDY    70  52  52 SW5       29.82F
AUSTIN         SUNNY     73  55  53 SW12      29.81S
PRESTON        PTSUNNY   68  53  58 S8        29.84S
$$
ABBREVIATIONS USED IN REMARKS
   TC - TEMPERATURES IN CELSIUS
  WCI - WIND CHILL INDEX
   HX - HEAT INDEX
  VSB - VISIBILITY
$$


USA.gov is the U.S. government's official web portal to all federal, state and local government web resources and services.